This is the latest recevied weather packets stored in our database for station/object K0SDS. If no packets are shown the sender has not sent any weather packets the latest 10 day(s).
| Time | Temp. | Humidity | Pressure | Rain* | Wind** | Luminosity | Snow |
|---|---|---|---|---|---|---|---|
| 1787525384 | 26.11° C | 71% | 1017 hPa | 0 mm | - | 138 W/m² | - |
| 1787525080 | 26.11° C | 71% | 1016.9 hPa | 0 mm | - | 246 W/m² | - |
| 1787524780 | 26.11° C | 72% | 1017.1 hPa | 0 mm | - | 327 W/m² | - |
| 1787524477 | 25.56° C | 73% | 1017.2 hPa | 0 mm | - | 285 W/m² | - |
| 1787524176 | 25.56° C | 71% | 1017.7 hPa | 0 mm | - | 195 W/m² | - |
| 1787523872 | 25.56° C | 72% | 1017.5 hPa | 0 mm | - | 179 W/m² | - |
| 1787523567 | 25° C | 70% | 1017.5 hPa | 0 mm | - | 188 W/m² | - |
| 1787523262 | 25.56° C | 72% | 1017.7 hPa | 0 mm | - | 198 W/m² | - |
| 1787522958 | 25.56° C | 72% | 1017.8 hPa | 0 mm | - | 204 W/m² | - |
| 1787522654 | 25.56° C | 71% | 1018 hPa | 0 mm | - | 240 W/m² | - |
| 1787522354 | 25° C | 72% | 1017.5 hPa | 0 mm | - | 231 W/m² | - |
| 1787522049 | 25° C | 74% | 1017.8 hPa | 0 mm | - | 205 W/m² | - |
| 1787521749 | 25° C | 74% | 1018 hPa | 0 mm | - | 184 W/m² | - |
| 1787521443 | 25° C | 75% | 1017.8 hPa | 0 mm | - | 141 W/m² | - |
| 1787521143 | 25° C | 75% | 1017.8 hPa | 0 mm | - | 91 W/m² | - |
| 1787520838 | 25° C | 75% | 1017.9 hPa | 0 mm | - | 99 W/m² | - |
| 1787520533 | 25° C | 74% | 1017.9 hPa | 0 mm | - | 103 W/m² | - |
| 1787520230 | 25.56° C | 72% | 1017.8 hPa | 0 mm | - | 101 W/m² | - |
| 1787519930 | 25.56° C | 74% | 1018.3 hPa | 0 mm | - | 160 W/m² | - |
| 1787519625 | 25° C | 74% | 1018.2 hPa | 0 mm | - | 222 W/m² | - |
| 1787519325 | 25° C | 75% | 1017.8 hPa | 0 mm | - | 241 W/m² | - |
| 1787519020 | 25° C | 75% | 1017.8 hPa | 0 mm | - | 229 W/m² | - |
| 1787518715 | 25° C | 76% | 1017.6 hPa | 0 mm | - | 235 W/m² | - |
| 1787518411 | 24.44° C | 77% | 1017.8 hPa | 0 mm | - | 211 W/m² | - |
| 1787518106 | 23.89° C | 78% | 1017.8 hPa | 0 mm | - | 148 W/m² | - |
* Rain latest hour (hover to see other rain measurements)
** Current wind speed in m/s (hover to see current wind gust speed)